Crookston, MN

7:51 AM CDT on August 27, 2016 (GMT -0500)
Crookston Municipal-Kirkwood

Weather History for KCKN - September, 2012

Change the Weather History Date:

Saturday, September 29, 2012

  Actual Average Record
Temperature  
Mean Temperature 64 °F -  
Max Temperature 84 °F 58 °F 84 °F (2012)
Min Temperature 44 °F 36 °F 30 °F (1996)
Degree Days  
Heating Degree Days 1    
Growing Degree Days 14 (Base 50)    
Moisture  
Dew Point 36 °F    
Average Humidity 43    
Maximum Humidity 76    
Minimum Humidity 15    
Precipitation  
Precipitation 0.00 in - - ()
Sea Level Pressure  
Sea Level Pressure 30.04 in    
Wind  
Wind Speed 5 mph (SSE)    
Max Wind Speed 13 mph    
Max Gust Speed 16 mph    
Visibility 10 miles    
Events      
Averages and records for this station are not official NWS values.
T = Trace of Precipitation, MM = Missing Value Source: NWS Daily Summary

Daily Weather History Graph

Daily Weather History Graph

Search for Another Location

Airport or City:

Trip Planner

Search our weather history database for the weather conditions in past years. The results will help you decide how hot, cold, wet, or windy it might be!

Date:

Astronomy

Sep. 29, 2012 Rise Set
Actual Time 7:23 AM CDT 7:08 PM CDT
Civil Twilight 6:52 AM CDT 7:39 PM CDT
Nautical Twilight 6:16 AM CDT 8:15 PM CDT
Astronomical Twilight 5:39 AM CDT 8:52 PM CDT
Moon 6:38 PM CDT (9/29) 6:57 AM CDT (9/29)
Length of Visible Light 12h 46m
Length of Day
11h 45m
Full, 100% of the Moon is Illuminated
Sep 29
Full
Sep 29
Full
Oct 8
Last Quarter
Oct 15
New
Oct 21
First Quarter

Hourly Weather History & Observations

Time (CDT) Temp. Windchill Dew Point Humidity Pressure Visibility Wind Dir Wind Speed Gust Speed Precip Events Conditions
12:15 AM 53.6 °F - 39.2 °F 58% 30.08 in 10.0 mi Calm Calm - N/A   Clear
12:34 AM 53.6 °F - 39.2 °F 58% 30.08 in 10.0 mi ESE 3.5 mph - N/A   Clear
12:55 AM 55.4 °F - 41.0 °F 58% 30.08 in 10.0 mi SE 4.6 mph - N/A   Clear
1:15 AM 55.4 °F - 41.0 °F 58% 30.07 in 10.0 mi ESE 4.6 mph - N/A   Clear
1:34 AM 57.2 °F - 41.0 °F 55% 30.07 in 10.0 mi ESE 3.5 mph - N/A   Clear
1:55 AM 51.8 °F - 39.2 °F 62% 30.08 in 10.0 mi Calm Calm - N/A   Clear
2:15 AM 48.2 °F - 37.4 °F 66% 30.08 in 10.0 mi Calm Calm - N/A   Clear
2:34 AM 48.2 °F - 37.4 °F 66% 30.08 in 10.0 mi SE 3.5 mph - N/A   Clear
2:55 AM 48.2 °F - 37.4 °F 66% 30.09 in 10.0 mi SE 3.5 mph - N/A   Clear
3:15 AM 51.8 °F - 39.2 °F 62% 30.09 in 10.0 mi ESE 3.5 mph - N/A   Clear
3:34 AM 51.8 °F - 39.2 °F 62% 30.08 in 10.0 mi ESE 4.6 mph - N/A   Clear
3:55 AM 51.8 °F - 39.2 °F 62% 30.08 in 10.0 mi Calm Calm - N/A   Clear
4:14 AM 51.8 °F - 39.2 °F 62% 30.08 in 10.0 mi ESE 3.5 mph - N/A   Clear
4:35 AM 50.0 °F - 39.2 °F 66% 30.08 in 10.0 mi East 3.5 mph - N/A   Clear
4:55 AM 50.0 °F - 39.2 °F 66% 30.08 in 10.0 mi East 3.5 mph - N/A   Clear
5:14 AM 50.0 °F - 39.2 °F 66% 30.08 in 10.0 mi ESE 3.5 mph - N/A   Clear
5:35 AM 48.2 °F - 39.2 °F 71% 30.08 in 10.0 mi ESE 4.6 mph - N/A   Clear
5:55 AM 46.4 °F 45.2 °F 37.4 °F 71% 30.08 in 10.0 mi ESE 3.5 mph - N/A   Clear
6:14 AM 46.4 °F 44.3 °F 39.2 °F 76% 30.09 in 10.0 mi ESE 4.6 mph - N/A   Clear
6:35 AM 50.0 °F - 39.2 °F 66% 30.09 in 10.0 mi Calm Calm - N/A   Clear
6:54 AM 46.4 °F 44.3 °F 39.2 °F 76% 30.09 in 10.0 mi SE 4.6 mph - N/A   Clear
7:14 AM 46.4 °F 42.9 °F 39.2 °F 76% 30.09 in 10.0 mi SE 6.9 mph - N/A   Clear
7:35 AM 44.6 °F 40.2 °F 37.4 °F 76% 30.10 in 10.0 mi SSE 8.1 mph - N/A   Clear
7:55 AM 44.6 °F 40.2 °F 37.4 °F 76% 30.10 in 10.0 mi SSE 8.1 mph - N/A   Clear
8:14 AM 46.4 °F 43.5 °F 39.2 °F 76% 30.10 in 10.0 mi SSE 5.8 mph - N/A   Clear
8:35 AM 48.2 °F - 39.2 °F 71% 30.11 in 10.0 mi SE 5.8 mph - N/A   Clear
8:54 AM 51.8 °F - 39.2 °F 62% 30.11 in 10.0 mi SSE 5.8 mph - N/A   Clear
9:14 AM 55.4 °F - 39.2 °F 54% 30.10 in 10.0 mi SSE 5.8 mph - N/A   Clear
9:35 AM 57.2 °F - 39.2 °F 51% 30.10 in 10.0 mi SSE 4.6 mph - N/A   Clear
9:54 AM 60.8 °F - 39.2 °F 45% 30.10 in 10.0 mi South 4.6 mph - N/A   Clear
10:14 AM 62.6 °F - 39.2 °F 42% 30.09 in 10.0 mi South 4.6 mph - N/A   Clear
10:35 AM 64.4 °F - 39.2 °F 40% 30.09 in 10.0 mi South 4.6 mph - N/A   Clear
10:54 AM 68.0 °F - 39.2 °F 35% 30.09 in 10.0 mi SSW 4.6 mph - N/A   Clear
11:15 AM 69.8 °F - 39.2 °F 33% 30.09 in 10.0 mi South 5.8 mph - N/A   Clear
11:35 AM 73.4 °F - 37.4 °F 27% 30.08 in 10.0 mi South 5.8 mph - N/A   Clear
11:54 AM 75.2 °F - 37.4 °F 25% 30.08 in 10.0 mi SSW 5.8 mph - N/A   Clear
12:15 PM 77.0 °F - 37.4 °F 24% 30.07 in 10.0 mi SSW 5.8 mph - N/A   Clear
12:35 PM 78.8 °F - 33.8 °F 20% 30.06 in 10.0 mi SW 8.1 mph - N/A   Clear
12:54 PM 78.8 °F - 30.2 °F 17% 30.06 in 10.0 mi SSW 5.8 mph - N/A   Clear
1:15 PM 80.6 °F - 32.0 °F 17% 30.05 in 10.0 mi SSW 8.1 mph - N/A   Clear
1:35 PM 80.6 °F - 32.0 °F 17% 30.04 in 10.0 mi SSW 6.9 mph - N/A   Clear
1:54 PM 82.4 °F - 32.0 °F 16% 30.04 in 10.0 mi SW 9.2 mph - N/A   Clear
2:15 PM 82.4 °F - 32.0 °F 16% 30.03 in 10.0 mi SSW 10.4 mph - N/A   Clear
2:34 PM 82.4 °F - 32.0 °F 16% 30.02 in 10.0 mi SW 9.2 mph 16.1 mph N/A   Clear
2:54 PM 82.4 °F - 33.8 °F 17% 30.01 in 10.0 mi SSW 10.4 mph - N/A   Clear
3:15 PM 82.4 °F - 32.0 °F 16% 30.01 in 10.0 mi SSW 11.5 mph 16.1 mph N/A   Clear
3:34 PM 84.2 °F - 32.0 °F 15% 30.00 in 10.0 mi SSW 12.7 mph - N/A   Clear
3:54 PM 84.2 °F - 32.0 °F 15% 30.00 in 10.0 mi SSW 12.7 mph - N/A   Clear
4:15 PM 84.2 °F - 32.0 °F 15% 29.99 in 10.0 mi South 12.7 mph - N/A   Clear
4:34 PM 84.2 °F - 32.0 °F 15% 29.98 in 10.0 mi SW 11.5 mph - N/A   Clear
4:54 PM 84.2 °F - 32.0 °F 15% 29.98 in 10.0 mi SW 10.4 mph - N/A   Clear
5:15 PM 82.4 °F - 32.0 °F 16% 29.98 in 10.0 mi SSW 12.7 mph - N/A   Clear
5:34 PM 82.4 °F - 33.8 °F 17% 29.97 in 10.0 mi SSW 10.4 mph - N/A   Clear
5:55 PM 82.4 °F - 33.8 °F 17% 29.97 in 10.0 mi South 10.4 mph - N/A   Clear
6:15 PM 80.6 °F - 33.8 °F 18% 29.97 in 10.0 mi South 10.4 mph - N/A   Clear
6:34 PM 78.8 °F - 33.8 °F 20% 29.97 in 10.0 mi South 6.9 mph - N/A   Clear
6:55 PM 73.4 °F - 35.6 °F 25% 29.97 in 10.0 mi South 6.9 mph - N/A   Clear
7:15 PM 71.6 °F - 33.8 °F 25% 29.97 in 10.0 mi South 5.8 mph - N/A   Clear
7:34 PM 66.2 °F - 32.0 °F 28% 29.97 in 10.0 mi South 5.8 mph - N/A   Clear
7:55 PM 64.4 °F - 32.0 °F 30% 29.97 in 7.0 mi South 5.8 mph - N/A   Clear
8:15 PM 62.6 °F - 33.8 °F 34% 29.97 in 10.0 mi South 5.8 mph - N/A   Clear
8:34 PM 60.8 °F - 33.8 °F 36% 29.97 in 10.0 mi SSE 5.8 mph - N/A   Clear
8:55 PM 60.8 °F - 33.8 °F 36% 29.97 in 7.0 mi SSE 6.9 mph - N/A   Clear
9:15 PM 59.0 °F - 33.8 °F 39% 29.97 in 10.0 mi SSE 8.1 mph - N/A   Clear
9:34 PM 57.2 °F - 32.0 °F 38% 29.97 in 10.0 mi SSE 9.2 mph - N/A   Clear
9:55 PM 57.2 °F - 33.8 °F 41% 29.97 in 7.0 mi SSE 9.2 mph - N/A   Clear
10:15 PM 55.4 °F - 33.8 °F 44% 29.97 in 10.0 mi SSE 9.2 mph - N/A   Clear
10:34 PM 55.4 °F - 33.8 °F 44% 29.97 in 10.0 mi SSE 9.2 mph - N/A   Clear
10:55 PM 55.4 °F - 35.6 °F 47% 29.97 in 10.0 mi SSE 9.2 mph - N/A   Clear
11:14 PM 53.6 °F - 35.6 °F 51% 29.97 in 10.0 mi SSE 9.2 mph - N/A   Clear
11:35 PM 53.6 °F - 35.6 °F 51% 29.97 in 10.0 mi SSE 9.2 mph - N/A   Clear
11:55 PM 53.6 °F - 35.6 °F 51% 29.97 in 10.0 mi SSE 8.1 mph - N/A   Clear